This is the latest recevied weather packets stored in our database for station/object DM4WH-13. If no packets are shown the sender has not sent any weather packets the latest 10 day(s).
| Time | Temp. | Humidity | Pressure | Rain* | Wind** | Luminosity | Snow |
|---|---|---|---|---|---|---|---|
| 1777626612 | 17.22° C | 45% | 1031.5 hPa | 0 mm | 0.45 m/s, 288° | - | - |
| 1777626323 | 17.22° C | 43% | 1031.5 hPa | 0 mm | 0.45 m/s, 249° | - | - |
| 1777626011 | 16.11° C | 46% | 1031.4 hPa | 0 mm | 0.45 m/s, 304° | - | - |
| 1777625724 | 17.22° C | 46% | 1031.5 hPa | 0 mm | 0.45 m/s, 282° | - | - |
| 1777625410 | 16.11° C | 46% | 1031.5 hPa | 0 mm | 0.45 m/s, 291° | - | - |
| 1777625123 | 16.11° C | 48% | 1031.5 hPa | 0 mm | 0.45 m/s, 288° | - | - |
| 1777624811 | 16.11° C | 46% | 1031.5 hPa | 0 mm | 0.45 m/s, 264° | - | - |
| 1777624523 | 16.11° C | 46% | 1031.5 hPa | 0 mm | 0.45 m/s, 348° | - | - |
| 1777624211 | 16.11° C | 48% | 1031.5 hPa | 0 mm | 0.45 m/s, 298° | - | - |
| 1777623936 | 16.11° C | 49% | 1031.5 hPa | 0 mm | 0.45 m/s, 324° | - | - |
| 1777623623 | 15° C | 48% | 1031.6 hPa | 0 mm | 0.45 m/s, 311° | - | - |
| 1777623310 | 15° C | 49% | 1031.6 hPa | 0 mm | 0.89 m/s, 317° | - | - |
| 1777623023 | 15° C | 48% | 1031.6 hPa | 0 mm | 0.89 m/s, 287° | - | - |
| 1777622711 | 15° C | 49% | 1031.7 hPa | 0 mm | 0.45 m/s, 294° | - | - |
| 1777622423 | 13.89° C | 51% | 1031.7 hPa | 0 mm | 0.45 m/s, 287° | - | - |
| 1777622111 | 13.89° C | 53% | 1031.7 hPa | 0 mm | 0.45 m/s, 297° | - | - |
| 1777621823 | 15° C | 52% | 1031.6 hPa | 0 mm | 0.45 m/s, 249° | - | - |
| 1777621511 | 15° C | 50% | 1031.6 hPa | 0 mm | 0.45 m/s, 328° | - | - |
| 1777621223 | 15° C | 51% | 1031.6 hPa | 0 mm | 0 m/s | - | - |
| 1777620623 | 15° C | 49% | 1031.6 hPa | 0 mm | 0.45 m/s, 294° | - | - |
| 1777620311 | 13.89° C | 51% | 1031.6 hPa | 0 mm | 0.45 m/s, 332° | - | - |
| 1777620023 | 13.89° C | 53% | 1031.7 hPa | 0 mm | 0.45 m/s, 322° | - | - |
| 1777619711 | 12.78° C | 48% | 1031.6 hPa | 0 mm | 0 m/s | - | - |
| 1777619423 | 12.78° C | 51% | 1031.7 hPa | 0 mm | 0.45 m/s, 312° | - | - |
| 1777619111 | 12.78° C | 53% | 1031.7 hPa | 0 mm | 0.89 m/s, 304° | - | - |
* Rain latest hour (hover to see other rain measurements)
** Current wind speed in m/s (hover to see current wind gust speed)